Date String (YYYY-MM-DD hh:mm:ss) UTC,Instrument flags,absolute air pressure of the measurement (hPa),sample flow rate (lpm),inlet stack bypass flow (lpm),air temperature of the measurement (°C),ambient temperature measured by the external sensor (°C),aerosol sample conditioner tube jacket temperature (°C),OPC LED temperature (°C),internal box temperature (°C),relative humidity of the measurement (%),span deviation,mass concentration of particles derived from Lorenz-Mie calculation of OPC scattering (μg/m³),mass concentration of particles derived from Lorenz-Mie calculation of OPC scattering (μg/m³),mass concentration of particles derived from Lorenz-Mie calculation of OPC scattering (μg/m³)
DateTimeUTC,F1_M11,P_M11,Q1_M11,Q2_M11,T1_M11,T2_M11,T3_M11,T4_M11,T5_M11,U1_M11,ZSPAN_M11,X2_M11,X0_M11,X1_M11
2024-01-07 20:00:00,SystemResetWarning,0812.8,4.99,000.00,019.9,019.4,000.0,028.1,021.3,7.9,0000.0,0002.42,0004.71,0001.83
2024-01-07 20:01:00,SystemResetWarning,0812.8,4.99,000.00,019.9,019.4,000.0,028.1,021.3,7.9,0000.0,0002.46,0004.63,0001.86
2024-01-07 20:02:00,SystemResetWarning,0812.8,4.99,000.00,019.9,019.4,000.0,028.1,021.3,7.9,0000.0,0002.47,0004.74,0001.88
2024-01-07 20:03:00,SystemResetWarning,0812.8,5.01,000.00,019.9,019.4,000.0,028.1,021.3,7.8,0000.0,0002.51,0004.93,0001.90
2024-01-07 20:04:00,SystemResetWarning,0812.8,5.01,000.00,019.9,019.4,000.0,028.2,021.3,7.8,0000.0,0002.56,0005.00,0001.93
2024-01-07 20:05:00,SystemResetWarning,0812.8,5.00,000.00,019.9,019.4,000.0,028.2,021.3,7.8,0000.0,0002.59,0004.48,0001.95
2024-01-07 20:06:00,SystemResetWarning,0812.7,4.99,000.00,020.0,019.4,000.0,028.2,021.3,7.7,0000.0,0002.61,0004.86,0001.99
2024-01-07 20:07:00,SystemResetWarning,0812.7,4.99,000.00,020.0,019.4,000.0,028.2,021.3,7.7,0000.0,0002.64,0006.18,0002.02
2024-01-07 20:08:00,SystemResetWarning,0812.7,5.00,000.00,020.0,019.4,000.0,028.2,021.3,7.7,0000.0,0002.70,0006.32,0002.03
2024-01-07 20:09:00,SystemResetWarning,0812.6,5.00,000.00,020.0,019.4,000.0,028.2,021.3,7.7,0000.0,0002.72,0006.54,0002.05
2024-01-07 20:10:00,SystemResetWarning,0812.7,5.01,000.00,020.0,019.4,000.0,028.2,021.3,7.7,0000.0,0002.74,0006.55,0002.06
2024-01-07 20:11:00,SystemResetWarning,0812.6,5.00,000.00,020.0,019.4,000.0,028.2,021.3,7.7,0000.0,0002.73,0006.46,0002.08
2024-01-07 20:12:00,SystemResetWarning,0812.6,5.01,000.00,020.0,019.4,000.0,028.2,021.3,7.7,0000.0,0002.76,0006.64,0002.07
2024-01-07 20:13:00,SystemResetWarning,0812.6,4.98,000.00,020.0,019.4,000.0,028.2,021.3,7.6,0000.0,0002.82,0007.51,0002.08
2024-01-07 20:14:00,SystemResetWarning,0812.6,5.00,000.00,020.0,019.4,000.0,028.2,021.3,7.6,0000.0,0002.91,0007.54,0002.07
2024-01-07 20:15:00,SystemResetWarning,0812.6,5.00,000.00,020.0,019.4,000.0,028.2,021.3,7.6,0000.0,0002.92,0007.55,0002.07
2024-01-07 20:16:00,SystemResetWarning,0812.6,5.01,000.00,020.0,019.5,000.0,028.3,021.3,7.6,0000.0,0002.90,0007.52,0002.06
2024-01-07 20:17:00,SystemResetWarning,0812.6,5.00,000.00,020.0,019.5,000.0,028.3,021.4,7.6,0000.0,0002.90,0007.37,0002.04
2024-01-07 20:18:00,SystemResetWarning,0812.5,5.00,000.00,020.0,019.5,000.0,028.3,021.3,7.5,0000.0,0002.86,0005.93,0002.01
2024-01-07 20:19:00,SystemResetWarning,0812.5,5.00,000.00,020.0,019.5,000.0,028.3,021.3,7.5,0000.0,0002.84,0006.93,0001.99
2024-01-07 20:20:00,SystemResetWarning,0812.5,4.99,000.00,020.0,019.5,000.0,028.3,021.3,7.5,0000.0,0002.82,0007.54,0001.97
2024-01-07 20:21:00,SystemResetWarning,0812.5,4.99,000.00,020.1,019.5,000.0,028.3,021.4,7.4,0000.0,0002.78,0007.50,0001.96
2024-01-07 20:22:00,SystemResetWarning,0812.5,5.00,000.00,020.0,019.5,000.0,028.3,021.4,7.4,0000.0,0002.72,0007.50,0001.94
2024-01-07 20:23:00,SystemResetWarning,0812.4,5.00,000.00,020.1,019.5,000.0,028.3,021.3,7.3,0000.0,0002.67,0007.40,0001.93
2024-01-07 20:24:00,SystemResetWarning,0812.4,5.00,000.00,020.1,019.5,000.0,028.3,021.3,7.3,0000.0,0002.61,0006.37,0001.92
2024-01-07 20:25:00,SystemResetWarning,0812.4,5.00,000.00,020.1,019.5,000.0,028.3,021.4,7.3,0000.0,0002.57,0006.41,0001.91
2024-01-07 20:26:00,SystemResetWarning,0812.4,4.98,000.00,020.1,019.5,000.0,028.3,021.4,7.3,0000.0,0002.55,0006.51,0001.90
2024-01-07 20:27:00,SystemResetWarning,0812.4,4.99,000.00,020.1,019.5,000.0,028.3,021.4,7.2,0000.0,0002.54,0006.49,0001.91
2024-01-07 20:28:00,SystemResetWarning,0812.4,5.01,000.00,020.1,019.5,000.0,028.3,021.3,7.2,0000.0,0002.50,0006.43,0001.91
2024-01-07 20:29:00,SystemResetWarning,0812.4,5.00,000.00,020.1,019.5,000.0,028.3,021.3,7.2,0000.0,0002.50,0006.42,0001.93
2024-01-07 20:30:00,SystemResetWarning,0812.4,5.00,000.00,020.1,019.4,000.0,028.4,021.3,7.2,0000.0,0002.47,0005.65,0001.95
2024-01-07 20:31:00,SystemResetWarning,0812.4,5.00,000.00,020.1,019.4,000.0,028.4,021.3,7.1,0000.0,0002.44,0004.11,0001.96
2024-01-07 20:32:00,SystemResetWarning,0812.4,5.00,000.00,020.1,019.4,000.0,028.4,021.3,7.1,0000.0,0002.47,0004.13,0001.97
2024-01-07 20:33:00,SystemResetWarning,0812.4,4.99,000.00,020.1,019.4,000.0,028.4,021.3,7.1,0000.0,0002.49,0004.11,0001.96
2024-01-07 20:34:00,SystemResetWarning,0812.4,4.99,000.00,020.1,019.4,000.0,028.4,021.3,7.1,0000.0,0002.51,0004.19,0001.96
2024-01-07 20:35:00,SystemResetWarning,0812.4,5.00,000.00,020.1,019.4,000.0,028.4,021.3,7.1,0000.0,0002.53,0004.26,0001.97
2024-01-07 20:36:00,SystemResetWarning,0812.4,5.00,000.00,020.1,019.4,000.0,028.4,021.3,7.1,0000.0,0002.48,0004.20,0001.96
2024-01-07 20:37:00,SystemResetWarning,0812.4,5.01,000.00,020.1,019.4,000.0,028.4,021.3,7.1,0000.0,0002.45,0003.97,0001.95
2024-01-07 20:38:00,SystemResetWarning,0812.4,5.01,000.00,020.1,019.4,000.0,028.4,021.3,7.1,0000.0,0002.43,0004.59,0001.93
2024-01-07 20:39:00,SystemResetWarning,0812.4,5.00,000.00,020.1,019.4,000.0,028.4,021.2,7.1,0000.0,0002.43,0004.75,0001.89
2024-01-07 20:40:00,SystemResetWarning,0812.4,5.00,000.00,020.1,019.4,000.0,028.4,021.2,7.1,0000.0,0002.38,0004.74,0001.84
2024-01-07 20:41:00,SystemResetWarning,0812.4,4.99,000.00,020.0,019.3,000.0,028.4,021.2,7.1,0000.0,0002.38,0005.28,0001.81
2024-01-07 20:42:00,SystemResetWarning,0812.4,5.00,000.00,020.0,019.3,000.0,028.4,021.2,7.1,0000.0,0002.35,0005.40,0001.79
2024-01-07 20:43:00,SystemResetWarning,0812.4,5.00,000.00,020.0,019.3,000.0,028.4,021.2,7.1,0000.0,0002.30,0005.89,0001.76
2024-01-07 20:44:00,SystemResetWarning,0812.4,5.00,000.00,020.0,019.4,000.0,028.4,021.2,7.1,0000.0,0002.29,0008.03,0001.74
2024-01-07 20:45:00,SystemResetWarning,0812.4,5.00,000.00,020.0,019.4,000.0,028.4,021.2,7.1,0000.0,0002.24,0008.25,0001.71
2024-01-07 20:46:00,SystemResetWarning,0812.4,5.00,000.00,020.0,019.4,000.0,028.4,021.3,7.1,0000.0,0002.18,0008.55,0001.67
2024-01-07 20:47:00,SystemResetWarning,0812.4,5.00,000.00,020.0,019.4,000.0,028.4,021.2,7.1,0000.0,0002.14,0008.75,0001.65
2024-01-07 20:48:00,SystemResetWarning,0812.4,5.00,000.00,020.0,019.4,000.0,028.4,021.2,7.1,0000.0,0002.07,0008.70,0001.61
2024-01-07 20:49:00,SystemResetWarning,0812.4,5.00,000.00,020.0,019.4,000.0,028.4,021.3,7.1,0000.0,0002.03,0009.10,0001.58
2024-01-07 20:50:00,SystemResetWarning,0812.4,5.00,000.00,020.0,019.4,000.0,028.4,021.3,7.1,0000.0,0002.00,0009.09,0001.58
2024-01-07 20:51:00,SystemResetWarning,0812.4,5.00,000.00,020.0,019.4,000.0,028.4,021.2,7.1,0000.0,0001.98,0009.06,0001.57
2024-01-07 20:52:00,SystemResetWarning,0812.3,4.99,000.00,020.1,019.4,000.0,028.4,021.3,7.1,0000.0,0001.96,0008.83,0001.55
2024-01-07 20:53:00,SystemResetWarning,0812.3,5.01,000.00,020.1,019.4,000.0,028.4,021.3,7.1,0000.0,0001.93,0009.04,0001.53
2024-01-07 20:54:00,SystemResetWarning,0812.2,5.00,000.00,020.1,019.4,000.0,028.4,021.3,7.0,0000.0,0001.89,0008.96,0001.51
2024-01-07 20:55:00,SystemResetWarning,0812.2,5.00,000.00,020.1,019.4,000.0,028.4,021.3,7.0,0000.0,0001.87,0007.25,0001.50
2024-01-07 20:56:00,SystemResetWarning,0812.2,4.99,000.00,020.1,019.5,000.0,028.4,021.3,7.0,0000.0,0001.87,0006.78,0001.49
2024-01-07 20:57:00,SystemResetWarning,0812.2,5.00,000.00,020.1,019.5,000.0,028.4,021.4,7.0,0000.0,0001.92,0006.26,0001.50
2024-01-07 20:58:00,SystemResetWarning,0812.2,5.00,000.00,020.1,019.5,000.0,028.4,021.4,7.0,0000.0,0001.93,0005.57,0001.50
2024-01-07 20:59:00,SystemResetWarning,0812.1,5.01,000.00,020.1,019.5,000.0,028.4,021.4,7.0,0000.0,0001.97,0005.63,0001.50
